Voltar ao catálogo

SL-14 R/B

AtivoPO
NORAD 20511·ROCKET BODY·🇷🇺 Russia

Lançado Feb 28, 1990 de Plesetsk Cosmodrome

Loading…

Próximas Passagens (próximas 24 horas)

TLE

AtualizadoSource: Space-Track

Época: Sep 14, 2026, 09:22 UTC

1 20511U 90018B   26257.39066452  .00000303  00000-0  34918-4 0  9999
2 20511  82.5205  46.7039 0015885 186.1013 174.0010 14.82263175950533

Acompanhe SL-14 R/B em tempo real com AllMySat

Download on the App Store